Regional Weather Roundup
Issued by NWS

Home | Current Version | Previous Version | Graphics & Text | Print | Product List | Glossary Off
Versions: 1 2 3 4 5 6 7 8 9 10 11 12 13 14 15 16 17 18 19 20 21 22 23 24 25 26 27 28 29 30 31 32 33 34 35 36 37 38 39 40 41 42 43 44 45 46 47 48 49 50

455
ASUS43 KMPX 250410
RWRMN
WEATHER ROUNDUP FOR MINNESOTA
NATIONAL WEATHER SERVICE TWIN CITIES/CHANHASSEN MN
1100 PM CDT SAT SEP 24 2016


NOTE: "FAIR" INDICATES FEW OR NO CLOUDS BELOW 12,000 FEET WITH NO
SIGNIFICANT WEATHER AND/OR OBSTRUCTIONS TO VISIBILITY. N/A MEANS
CURRENT SKY AND/OR WEATHER CONDITIONS ARE NOT AVAILABLE.

MNZ060>063-068>070-250500-
   Twin Cities Metro

CITY           SKY/WX    TMP DP  RH WIND       PRES   REMARKS
TWIN CITIES    CLOUDY    68  63  84 SE18      29.97F
ST PAUL        CLOUDY    67  63  87 SE15G22   29.98S
CRYSTAL        CLOUDY    68  61  78 SE15      29.96R
BLAINE         CLOUDY    68  66  94 SE12G18   29.97S
LAKEVILLE      CLOUDY    66  66 100 SE10      29.98S
EDEN PRAIRIE   CLOUDY    69  63  81 SE15      29.95S
LAKEVILLE      CLOUDY    66  66 100 SE10      29.98S
SOUTH ST PAUL  CLOUDY    67  64  89 SE9       29.98R
LAKE ELMO      CLOUDY    66  63  88 SE12G17   30.00F
$$
MNZ001>005-007-008-013>017-022>024-027-028-250500-
   Northwest Minnesota

CITY           SKY/WX    TMP DP  RH WIND       PRES   REMARKS
BEMIDJI        CLOUDY    64  62  91 SE12G17   29.87S
HALLOCK        CLOUDY    68  64  88 SE15      29.75R
ROSEAU         CLOUDY    64  61  88 SE15      29.83F
WARROAD        CLOUDY    64  61  88 SE16G22   29.85F
THIEF RVR FALL CLOUDY    65  63  93 SE16      29.81R
CROOKSTON      CLOUDY    64  64 100 S18G25    29.77F
FOSSTON        CLOUDY    64  63  94 SE9       29.83S
DETROIT LAKES  MOCLDY    66  63  88 S12       29.87R
MOORHEAD       CLOUDY    68  66  94 S17       29.81S
PARK RAPIDS    CLOUDY    66  62  87 SE17      29.89R
MAHNOMEN       CLOUDY    66  64  92 S8        29.82S
$$
MNZ006-009>011-018-025>026-250500-
   North Central Minnesota

CITY           SKY/WX    TMP DP  RH WIND       PRES   REMARKS
BAUDETTE       CLOUDY    63  61  93 SE14      29.87F
FLAG ISLAND    DRIZZLE   63  61  94 SE10      29.86F
INTL FALLS     CLOUDY    62  58  86 SE12G18   29.94F
WASKISH        CLOUDY    64  61  88 E12       29.88F
BIG FORK       CLOUDY    63  61  94 SE8       29.93F
LONGVILLE      CLOUDY    64  63  94 SE12G21   29.92R
GRAND RAPIDS   LGT RAIN  63  61  93 SE10G18   29.97F
CRANE LAKE     CLOUDY    61  57  88 CALM      30.00F
COOK           CLOUDY    63  59  88 SE8G16    29.99F
WALKER         CLOUDY    64  62  91 SE9G17    29.89R
$$
MNZ012-019>021-037-250500-
   Northeast Minnesota

CITY           SKY/WX    TMP DP  RH WIND       PRES   REMARKS
DULUTH         CLOUDY    62  59  90 SE12      30.01F
ELY            PTCLDY    61  54  77 SE7       30.02S
HIBBING        CLOUDY    61  59  93 SE13      29.99F
EVELETH        CLOUDY    63  58  85 SE7       30.01F
DULUTH HARBOR  CLOUDY    59  57  94 NE15      30.02F
TWO HARBORS    CLOUDY    64  59  82 NE8       30.02F
SILVER BAY     CLOUDY    61  57  88 NE7       30.03F
GRAND MARAIS     N/A     62  56  80 NE12      30.08F
G MARAIS ARPRT CLOUDY    57  50  77 E8        30.11F
$$
MNZ029>031-032-039>041-046>048-054>057-064-250500-
   West Central Minnesota

CITY           SKY/WX    TMP DP  RH WIND       PRES   REMARKS
FERGUS FALLS   CLOUDY    66  66 100 S14       29.87S
MORRIS         CLOUDY    66  66 100 S9        29.87S
ALEXANDRIA     CLOUDY    67  67 100 SE14      29.91F
ELBOW LAKE     CLOUDY    65  65  97 SE12      29.87S
GLENWOOD       RAIN      66  66 100 SE13G18   29.91S
BENSON         MOCLDY    68  64  88 S14G20    29.89S
MADISON          N/A     70  70 100 S7        29.88S
WILLMAR        LGT RAIN  68  66  94 SE8       29.92F
$$
MNZ033>034-036-042>043-049>051-058-059-250500-
   Central Minnesota

CITY           SKY/WX    TMP DP  RH WIND       PRES   REMARKS
ST CLOUD       CLOUDY    66  65  96 SE15G24   29.95S
SAUK CENTRE    HVY RAIN  66  65  98 E9        29.91F
PAYNESVILLE    RAIN      66  67 100 SE13G18   29.93F
AITKIN         CLOUDY    66  61  82 SE12      29.95S
PINE RIVER     CLOUDY    64  64 100 SE14G25   29.95S
BRAINERD       LGT RAIN  64  63  96 SE10G24   29.94S FOG
STAPLES        RAIN      64  63  94 SE9       29.90F
LONG PRAIRIE   HVY RAIN  64  63  94 E8        29.93S
LITTLE FALLS   RAIN      64  61  88 SE9       29.94F
LITCHFIELD     DRIZZLE   68  66  94 SE13      29.94R
BUFFALO        CLOUDY    66  63  87 E7        29.97R
MAPLE LAKE     CLOUDY    67  65  94 E5        29.97R
HUTCHINSON     CLOUDY    68  67  96 SE12      29.95R FOG
$$
MNZ037-044-045-052-053-250500-
   East Central Minnesota

CITY           SKY/WX    TMP DP  RH WIND       PRES   REMARKS
PRINCETON      CLOUDY    66  64  94 E10       29.97S
MORA           CLOUDY    63  61  94 SE7       30.00S
CAMBRIDGE      CLOUDY    68  61  77 SE7       29.97R
MOOSE LAKE     CLOUDY    63  59  88 S5        29.99R
HINCKLEY       CLOUDY    63  63 100 SE8       30.00S
CLOQUET        CLOUDY    61  57  88 E8        30.01S
MCGREGOR       CLOUDY    63  61  94 SE12      29.99S
$$
MNZ071>073-080-081-089-090-097-098-250500-
   Southwest Minnesota

CITY           SKY/WX    TMP DP  RH WIND       PRES   REMARKS
MONTEVIDEO     CLOUDY    68  68 100 S8        29.90F
GRANITE FALLS  RAIN      70  68  95 E8        29.91S
CANBY          CLOUDY    68  66  93 SE6       29.90S
MARSHALL       MOCLDY    66  66 100 SE7       29.90S
REDWOOD FALLS  CLOUDY    69  66  90 SE9       29.90F
OLIVIA         CLOUDY    68  64  88 SE7       29.90F
PIPESTONE      CLOUDY    70  68  94 S7        29.92S FOG
WINDOM         CLOUDY    70  66  88 S9        29.94S
WORTHINGTON    CLOUDY    67  64  90 S12G17    29.94F
JACKSON        MOCLDY    68  64  88 S13       29.97R
TRACY          PTCLDY    69  68  97 S8        29.91F
SLAYTON        CLOUDY    66  66 100 S7        29.94S
$$
MNZ065>067-074>077-082>085-091>093-250500-
   South Central Minnesota

CITY           SKY/WX    TMP DP  RH WIND       PRES   REMARKS
MANKATO        LGT RAIN  68  66  93 SE17      29.95S
NEW ULM        CLOUDY    70  66  88 S9        29.93R
ST JAMES       CLOUDY    68  66  94 SE8       29.95S
FAIRMONT       LGT RAIN  68  65  90 S15       29.96S
GLENCOE        CLOUDY    67  67 100 SE12      29.95R
FARIBAULT      CLOUDY    68  64  88 SE13      29.99R
OWATONNA       CLOUDY    70  64  83 SE13G20   30.00R
WASECA         CLOUDY    68  63  83 SE15G24   30.00R
ALBERT LEA     DRIZZLE   68  66  94 S15       30.01R
$$
MNZ078>079-086>088-094>096-250500-
   Southeast Minnesota

CITY           SKY/WX    TMP DP  RH WIND       PRES   REMARKS
ROCHESTER      CLOUDY    67  65  93 SE16      30.03F
RED WING       CLOUDY    68  64  88 SE16G23   29.99F
DODGE CENTER   CLOUDY    66  64  94 SE15G21   30.02R
WINONA         MOCLDY    66  63  88 SE8       30.06R
AUSTIN         CLOUDY    66  63  88 SE10G17   30.02S
PRESTON        CLOUDY    65  62  89 SE13      30.06S
$$
ABBREVIATIONS USED IN REMARKS
   TC - TEMPERATURES IN CELSIUS
  WCI - WIND CHILL INDEX
   HX - HEAT INDEX
  VSB - VISIBILITY
$$




USA.gov is the U.S. government's official web portal to all federal, state and local government web resources and services.